Overview Statistics Trail Chart Weather Telemetry Raw packets
 

This is the latest recevied weather packets stored in our database for station/object PA3DZX-13. If no packets are shown the sender has not sent any weather packets the latest 10 day(s).

<< 24 25 26 27 28 29 30 >>
Time Temp. Humidity Pressure Rain* Wind** Luminosity Snow
1788044784 17.78° C 91% 1006.2 hPa 2.54 mm - - -
1788043882 17.78° C 92% 1006.2 hPa 4.57 mm - - -
1788042982 17.78° C 89% 1006.3 hPa 0.76 mm - - -
1788042082 17.78° C 88% 1006.4 hPa 0 mm - - -
1788041182 17.78° C 88% 1006.6 hPa 0 mm - - -
1788040282 17.78° C 88% 1006.8 hPa 0 mm - - -
1788039383 17.78° C 88% 1006.8 hPa 0 mm - - -
1788038482 17.78° C 89% 1007.2 hPa 0 mm - - -
1788037582 16.67° C 90% 1007.2 hPa 0 mm - - -
1788036681 16.67° C 91% 1007.2 hPa 0 mm - - -
1788035781 16.67° C 91% 1007.5 hPa 0 mm - - -
1788034881 16.67° C 92% 1007.5 hPa 0 mm - - -
1788033981 16.67° C 93% 1007.6 hPa 0 mm - - -
1788033080 16.67° C 92% 1007.6 hPa 0.25 mm - - -
1788032181 17.78° C 89% 1007.7 hPa 0.51 mm - - -
1788031280 17.78° C 88% 1007.7 hPa 0.51 mm - - -
1788030380 17.78° C 85% 1007.8 hPa 2.03 mm - - -
1788029480 17.78° C 82% 1007.8 hPa 0.76 mm - - -
1788028580 17.78° C 82% 1008 hPa 0.51 mm - - -
1788027679 17.78° C 82% 1008.2 hPa 1.27 mm - - -
1788026780 18.89° C 82% 1008.3 hPa 0 mm - - -
1788025879 17.78° C 84% 1008.5 hPa 0 mm - - -
1788024979 17.78° C 83% 1008.6 hPa 0 mm - - -
1788024078 17.78° C 84% 1008.7 hPa 0 mm - - -
1788023178 17.78° C 85% 1009 hPa 0 mm - - -

* Rain latest hour (hover to see other rain measurements)
** Current wind speed in m/s (hover to see current wind gust speed)